User: anonymous   Login
Location: Unspecified
(0.0000°N, 0.0000°E)
Time: 17:32:33
(UTC+00:00)
Language:

Vanguard 3 - Orbit

View from above orbital plane
View from above orbital plane
View from above satellite
View from above satellite

Ground track
Ground track

The orbit data is extracted from the following two-line orbital elements,

1    20U 59007A   19265.78163125  .00000120  00000-0  35018-4 0  9993
2    20  33.3567  59.1823 1667307 281.5283  60.3441 11.55683956199543
Epoch (UTC): 22 September 2019 18:45:32
Eccentricity: 0.1667307
inclination: 33.3567°
perigee height: 508 km
apogee height: 3263 km
right ascension of ascending node: 59.1823°
argument of perigee: 281.5283°
revolutions per day: 11.55683956
mean anomaly at epoch: 60.3441°
orbit number at epoch: 19954

The dashed part of the orbit path shows where the satellite is in the earth's shadow,  

DLR